Terug naar catalogus

VANGUARD R/B

ActiefUNKNOWN
NORAD 12·ROCKET BODY·🇺🇸 United States

Gelanceerd Feb 17, 1959 vanaf Cape Canaveral Space Force Station

Loading…

Volgende Passages (komende 24 uur)

TLE

VersSource: Space-Track

Epoch: Sep 6, 2026, 19:17 UTC

1 00012U 59001B   26249.80349034  .00000257  00000-0  13786-3 0  9994
2 00012  32.9001 297.5052 1644823 177.4953 183.5178 11.48642281540711

Volg VANGUARD R/B in realtime met AllMySat

Download on the App Store